Wind_Speed
70 66 62 59 52 49 47 51 51 48 50 49 47 45 46 46 46 47 48 41 35 24 6 5 7 10 13 14 16 16 12 11 7 14 22 36 40 39 38 27 21 18 19
66 62 59 56 52 45 45 46 45 46 45 44 43 42 44 43 43 46 43 34 23 10 10 7 10 17 15 15 18 17 17 9 7 12 29 36 39 37 31 28 27 19 21
58 55 53 52 49 46 44 43 43 43 40 40 40 41 41 40 43 43 33 24 10 8 12 11 18 19 19 17 22 23 16 14 10 10 27 37 38 39 36 31 27 18 21
54 50 49 48 47 43 43 39 38 36 39 42 41 39 38 39 41 32 26 11 9 11 13 14 21 22 21 12 13 19 18 18 16 14 26 35 33 35 31 29 20 15 22
47 48 47 46 45 43 38 38 36 40 40 37 34 34 35 38 37 24 19 8 9 11 13 15 19 21 19 16 14 23 14 16 14 16 18 27 38 34 32 28 23 21 25
42 40 40 42 41 39 36 38 37 34 32 28 29 31 34 34 25 19 15 9 10 6 12 17 15 19 21 15 16 21 16 19 18 17 18 20 25 40 37 32 28 24 26
36 35 36 37 36 34 33 31 29 28 25 23 26 30 28 24 20 21 12 11 11 10 15 11 17 21 24 19 19 17 18 16 15 18 19 23 25 35 39 37 32 29 29
34 34 35 33 31 30 28 26 25 21 18 20 27 26 26 23 20 20 11 14 10 13 10 16 21 22 22 17 13 14 14 13 15 19 18 20 20 34 39 35 34 32 32
34 34 31 30 28 27 24 23 19 14 18 24 24 24 22 23 18 15 10 12 8 8 12 16 18 20 20 12 10 8 12 15 15 19 20 18 18 30 31 31 34 32 37
33 32 30 28 25 24 22 19 14 16 22 25 24 25 24 20 17 10 14 7 6 8 12 15 19 20 17 8 5 7 8 8 11 15 18 19 23 26 30 32 34 30 40
34 33 28 25 24 21 17 14 13 17 21 25 25 23 20 20 16 12 15 5 6 7 10 16 22 22 16 7 5 5 5 8 11 14 21 27 25 25 26 29 31 32 42
39 31 26 24 20 16 14 13 13 18 22 25 19 16 18 15 8 19 13 9 6 3 8 16 22 21 11 6 6 5 8 11 15 21 26 27 24 25 26 27 29 35 42
34 30 26 22 17 16 14 12 18 20 22 19 15 15 16 16 13 22 13 12 6 2 8 14 18 18 12 9 10 14 19 19 24 27 28 27 28 25 21 23 28 34 40
32 25 23 19 18 14 11 13 16 17 16 13 14 14 12 9 18 22 13 12 8 2 4 8 16 19 12 12 13 19 21 21 23 25 30 31 27 24 24 23 25 27 31
28 25 21 22 15 11 12 12 14 16 15 14 13 14 9 6 19 22 17 14 11 4 3 6 11 18 19 14 15 18 22 24 29 30 29 28 28 26 24 24 25 25 24
24 23 20 17 10 12 13 13 14 13 13 15 13 14 9 8 18 23 19 15 14 8 8 7 8 11 17 19 22 23 23 26 26 25 23 26 28 28 27 24 22 18 19
25 24 14 11 9 11 13 15 15 12 10 13 12 16 13 9 18 23 21 19 15 12 11 10 10 9 13 18 18 15 18 20 20 22 23 27 27 26 21 19 18 20 19
25 17 13 12 8 9 13 15 13 10 6 7 14 14 14 8 16 24 23 20 18 16 15 12 10 8 4 8 9 11 12 14 14 15 16 15 15 14 13 14 15 15 15
22 18 17 12 8 7 8 10 10 6 5 6 12 16 14 12 16 22 26 23 19 19 20 17 13 7 8 12 11 10 10 11 12 12 13 12 14 13 12 13 14 16 18
21 18 14 12 7 6 8 6 6 6 7 7 10 13 13 15 20 22 26 27 23 19 20 20 18 14 9 10 11 11 14 15 12 15 13 14 13 13 17 21 21 22 25
21 17 17 13 6 4 4 7 7 6 8 6 7 9 13 16 21 20 22 24 25 25 23 22 21 18 18 16 15 17 18 18 19 17 19 17 18 19 20 22 25 29 31
22 18 17 9 6 3 2 5 6 5 5 5 6 6 9 17 13 15 16 18 25 25 26 27 26 27 23 22 22 22 24 26 25 25 24 23 24 27 30 31 33 33 31
22 20 17 12 7 6 3 2 3 3 3 1 1 6 10 13 11 9 11 15 18 22 27 29 30 31 29 29 30 27 27 27 34 34 32 31 32 31 30 30 29 26 26
27 22 13 10 12 10 7 2 3 7 2 3 6 13 14 16 15 14 12 11 9 10 10 16 23 27 26 25 27 28 29 28 27 28 30 30 30 30 32 31 30 29 30
29 28 26 23 14 10 8 6 3 2 1 3 1 7 13 15 15 17 14 17 16 16 16 14 17 18 19 21 23 25 27 28 29 31 32 33 34 34 34 35 36 35 36
35 32 26 22 21 16 12 9 9 8 6 5 4 7 10 16 22 23 23 20 19 18 18 18 20 21 22 23 25 25 26 27 28 29 29 31 34 36 37 38 38 38 39
Wind_Direction
252 254 257 261 265 266 270 270 274 278 282 285 289 291 294 298 303 308 309 307 303 299 257 248 309 297 311 328 331 308 298 293 299 217 192 190 198 204 214 223 226 234 214
251 254 256 257 259 263 263 268 272 276 282 284 288 290 295 299 306 309 308 307 300 268 237 258 289 289 318 298 312 304 280 279 274 211 198 199 203 208 212 221 229 222 195
248 250 253 254 255 257 260 265 271 276 280 285 287 290 293 300 307 308 305 307 285 241 248 276 293 303 317 322 307 302 271 259 242 249 208 202 208 212 218 220 227 205 193
244 246 247 249 250 253 257 261 262 266 268 273 283 288 293 304 305 304 308 295 272 258 266 262 288 292 304 303 318 321 280 251 254 239 208 205 204 209 209 208 207 199 196
239 240 243 247 249 250 252 252 250 254 263 274 283 292 299 301 301 302 315 274 271 269 270 285 296 292 281 292 313 313 276 236 247 227 215 204 212 217 216 219 220 207 195
234 237 237 239 241 242 241 246 253 259 267 274 286 296 298 297 292 311 305 234 260 277 286 287 285 288 303 295 302 303 258 243 233 227 229 227 225 222 223 221 217 215 197
232 232 230 231 232 236 240 246 253 262 270 281 295 295 291 290 299 320 282 227 243 289 286 297 310 317 312 299 286 284 261 250 246 240 239 230 225 220 220 221 218 210 196
231 226 221 222 227 232 237 242 251 259 275 295 294 290 289 289 301 320 237 216 248 273 302 320 322 322 315 292 280 270 260 262 258 237 228 224 234 211 210 216 214 213 194
224 218 217 219 223 229 234 241 249 267 284 294 289 289 287 288 295 306 226 211 275 279 314 317 325 324 325 309 285 257 268 267 234 209 213 217 211 197 200 200 202 199 190
215 213 211 215 221 227 234 239 257 273 285 288 284 286 291 275 292 272 190 221 231 296 310 330 342 341 339 317 339 312 279 230 199 192 204 200 187 181 183 189 189 188 186
216 214 211 214 219 229 229 249 263 282 282 283 288 283 275 276 294 197 191 215 239 298 320 342 340 347 348 335 351 331 187 171 160 166 166 167 168 175 182 185 184 185 185
223 214 210 216 223 223 242 253 272 285 281 283 279 275 270 283 237 183 189 192 234 291 342 352 347 354 351 7 44 84 120 128 141 145 148 157 166 169 172 178 180 180 182
217 214 213 216 217 236 245 255 276 284 286 276 268 266 272 295 200 188 196 198 204 257 359 2 5 13 28 67 82 107 110 119 126 131 138 142 145 149 154 162 171 178 183
212 213 216 214 229 228 231 257 285 292 277 273 257 262 276 279 187 191 194 194 188 207 18 30 33 33 37 64 109 112 113 116 120 127 133 138 137 136 135 146 157 171 183
211 213 212 224 227 231 240 269 288 288 268 261 258 255 282 218 185 192 193 187 179 150 153 75 68 50 51 78 108 125 123 124 128 123 127 133 134 135 139 141 143 148 160
210 209 216 229 233 237 251 280 292 290 269 253 263 246 255 211 192 191 194 190 189 171 174 128 89 73 78 91 110 111 119 125 129 131 136 142 145 147 148 150 151 159 176
207 207 217 234 248 234 265 289 295 293 263 253 247 239 241 224 199 198 202 200 197 178 171 172 128 96 103 104 122 113 106 112 123 133 144 151 151 154 157 160 172 185 195
206 207 212 239 258 255 282 294 291 292 258 252 232 232 232 237 203 200 206 209 208 200 203 199 177 171 165 137 135 139 135 140 137 144 150 162 172 179 189 199 207 218 234
208 210 220 255 261 276 302 312 300 290 282 265 231 225 226 232 209 201 206 212 215 214 210 225 221 203 221 212 201 207 207 207 196 194 191 198 200 202 214 227 234 247 257
205 206 224 246 249 268 288 326 329 301 276 273 224 221 229 224 208 204 204 211 215 216 217 222 237 241 232 216 214 219 223 231 225 224 230 232 228 240 243 247 251 264 276
208 207 233 233 242 263 305 338 354 309 271 259 261 260 246 219 200 205 205 212 218 220 227 226 232 235 244 231 233 233 230 227 224 228 236 248 252 261 270 278 278 283 286
208 219 226 232 213 232 283 1 355 338 297 241 282 244 212 189 191 196 205 218 224 229 235 240 240 242 244 244 248 242 243 238 242 247 254 252 267 269 274 278 284 288 287
208 219 227 231 227 286 272 8 16 8 9 215 168 165 178 182 184 201 217 223 229 236 243 247 249 250 249 251 252 251 252 255 255 256 262 269 271 281 282 279 277 270 266
210 218 226 206 239 246 234 246 334 349 29 186 179 189 189 190 203 216 221 218 221 225 240 250 251 252 255 256 254 259 258 258 254 254 257 259 259 261 269 265 263 260 264
219 221 227 235 234 233 232 215 242 253 255 17 228 201 202 207 216 223 233 234 235 252 259 255 245 246 246 248 250 248 247 249 251 255 258 261 262 267 273 267 264 266 268
223 219 224 242 242 248 241 216 216 217 228 227 198 198 204 211 220 227 237 244 252 257 256 253 252 252 250 249 251 254 258 261 262 263 265 267 269 272 273 274 274 274 274
Height
10676 10681 10688 10694 10700 10702 10703 10699 10699 10698 10696 10693 10689 10686 10681 10676 10671 10665 10659 10653 10646 10641 10640 10639 10638 10636 10635 10632 10631 10628 10627 10626 10625 10625 10625 10630 10636 10640 10644 10649 10653 10658 10661
10662 10671 10676 10681 10686 10692 10691 10689 10688 10689 10686 10682 10680 10677 10672 10669 10664 10657 10650 10645 10639 10636 10637 10637 10635 10633 10633 10630 10628 10626 10624 10624 10624 10626 10627 10630 10634 10638 10642 10647 10652 10656 10660
10652 10658 10664 10669 10674 10679 10680 10681 10679 10677 10674 10672 10671 10668 10665 10662 10656 10651 10643 10638 10635 10635 10635 10634 10633 10631 10629 10626 10625 10622 10621 10621 10622 10623 10626 10629 10632 10636 10640 10644 10650 10653 10658
10641 10647 10652 10657 10661 10666 10669 10673 10673 10672 10667 10666 10664 10661 10658 10655 10649 10644 10638 10633 10632 10632 10632 10631 10630 10628 10626 10623 10620 10618 10616 10617 10618 10620 10622 10627 10630 10634 10639 10644 10648 10652 10656
10629 10635 10642 10647 10650 10654 10658 10661 10663 10664 10662 10660 10658 10653 10651 10647 10642 10637 10632 10629 10629 10628 10628 10628 10626 10624 10621 10618 10615 10613 10613 10614 10614 10616 10620 10624 10628 10632 10637 10642 10647 10651 10656
10620 10624 10631 10634 10638 10643 10648 10650 10652 10653 10654 10654 10650 10646 10645 10639 10635 10631 10627 10627 10627 10627 10626 10625 10624 10621 10617 10613 10611 10609 10608 10609 10611 10613 10617 10620 10624 10628 10633 10639 10645 10649 10654
10612 10616 10620 10624 10630 10635 10639 10642 10645 10646 10646 10646 10642 10640 10636 10633 10629 10625 10622 10624 10624 10624 10623 10623 10620 10616 10612 10608 10606 10603 10602 10603 10605 10608 10611 10613 10617 10621 10627 10634 10641 10647 10653
10606 10609 10611 10618 10623 10628 10633 10637 10638 10640 10638 10637 10635 10632 10629 10626 10623 10621 10620 10621 10622 10622 10622 10620 10616 10612 10607 10602 10599 10597 10597 10597 10598 10600 10603 10607 10609 10612 10620 10629 10638 10645 10652
10601 10602 10607 10613 10618 10623 10627 10630 10631 10630 10630 10630 10628 10625 10622 10620 10619 10618 10618 10620 10621 10621 10620 10617 10614 10608 10601 10597 10594 10593 10593 10591 10591 10594 10598 10602 10605 10611 10618 10625 10633 10641 10648
10594 10599 10603 10608 10614 10618 10621 10622 10623 10625 10624 10623 10621 10619 10617 10616 10615 10614 10616 10618 10620 10620 10618 10615 10610 10604 10597 10593 10589 10588 10586 10585 10587 10589 10594 10599 10604 10609 10616 10623 10631 10638 10646
10592 10596 10602 10605 10609 10612 10615 10616 10618 10619 10618 10616 10616 10614 10613 10612 10611 10611 10614 10617 10618 10618 10617 10613 10607 10600 10594 10590 10587 10585 10584 10585 10586 10589 10592 10598 10606 10613 10620 10626 10633 10639 10647
10590 10596 10598 10601 10605 10608 10610 10612 10613 10614 10612 10611 10610 10610 10609 10608 10607 10609 10613 10616 10617 10618 10616 10613 10606 10599 10594 10590 10588 10586 10586 10586 10587 10591 10597 10603 10610 10616 10622 10628 10633 10640 10647
10592 10593 10595 10598 10601 10605 10607 10608 10608 10608 10606 10605 10605 10605 10605 10604 10605 10608 10612 10615 10617 10618 10617 10615 10609 10601 10597 10593 10591 10591 10591 10592 10594 10597 10602 10608 10614 10620 10627 10632 10637 10644 10650
10589 10590 10592 10595 10599 10601 10602 10604 10604 10602 10601 10600 10600 10601 10601 10600 10602 10607 10612 10614 10617 10618 10618 10617 10612 10606 10601 10599 10598 10598 10598 10600 10603 10606 10610 10615 10621 10629 10633 10638 10643 10648 10654
10585 10587 10590 10594 10596 10597 10599 10600 10599 10597 10596 10596 10596 10597 10598 10598 10601 10607 10611 10614 10617 10619 10620 10620 10617 10613 10608 10606 10606 10606 10606 10608 10612 10615 10618 10624 10627 10633 10639 10644 10649 10654 10659
10580 10584 10589 10590 10592 10594 10595 10595 10595 10594 10592 10591 10592 10594 10596 10597 10601 10606 10610 10613 10616 10618 10620 10621 10621 10619 10617 10615 10616 10617 10618 10618 10620 10623 10627 10630 10634 10639 10644 10649 10653 10657 10662
10576 10581 10585 10587 10589 10590 10591 10591 10590 10588 10587 10587 10589 10590 10593 10596 10599 10604 10608 10612 10615 10618 10620 10622 10624 10624 10624 10624 10625 10626 10627 10628 10629 10632 10635 10637 10640 10644 10648 10651 10655 10658 10661
10575 10579 10581 10584 10585 10587 10587 10586 10585 10583 10583 10584 10585 10587 10590 10593 10597 10601 10606 10610 10614 10618 10620 10622 10624 10626 10628 10629 10630 10631 10633 10634 10636 10638 10640 10643 10645 10648 10650 10653 10655 10657 10659
10574 10576 10579 10581 10582 10583 10583 10581 10580 10580 10579 10580 10582 10584 10587 10590 10593 10597 10602 10607 10612 10616 10619 10621 10624 10626 10627 10629 10631 10632 10634 10636 10638 10640 10642 10644 10646 10648 10650 10652 10653 10655 10655
10572 10575 10578 10579 10580 10580 10581 10580 10578 10577 10577 10577 10578 10581 10583 10586 10589 10593 10598 10603 10609 10613 10617 10620 10622 10624 10627 10629 10630 10632 10634 10635 10637 10639 10641 10642 10644 10646 10647 10648 10650 10650 10651
10570 10573 10575 10576 10577 10578 10578 10577 10576 10576 10576 10576 10577 10578 10579 10582 10586 10591 10596 10601 10606 10610 10613 10617 10619 10621 10624 10626 10628 10630 10632 10633 10634 10636 10638 10639 10641 10642 10643 10644 10644 10644 10642
10570 10573 10574 10573 10575 10577 10577 10575 10574 10574 10574 10574 10575 10576 10577 10582 10587 10590 10594 10598 10601 10605 10609 10612 10615 10618 10619 10621 10623 10625 10627 10628 10630 10632 10633 10634 10636 10636 10636 10636 10636 10635 10634
10569 10571 10571 10573 10573 10574 10574 10574 10574 10572 10573 10573 10574 10577 10579 10583 10587 10589 10592 10594 10597 10599 10602 10605 10607 10610 10613 10616 10618 10620 10621 10622 10624 10626 10627 10627 10628 10627 10626 10626 10624 10623 10622
10564 10566 10568 10569 10569 10570 10572 10573 10573 10573 10573 10573 10573 10575 10578 10581 10584 10586 10589 10591 10593 10595 10597 10598 10601 10603 10606 10608 10609 10611 10612 10613 10614 10615 10615 10615 10616 10615 10615 10614 10613 10612 10612
10558 10560 10562 10564 10568 10568 10569 10571 10573 10574 10573 10573 10574 10575 10578 10581 10583 10585 10586 10588 10589 10591 10592 10593 10594 10596 10598 10599 10599 10600 10601 10602 10604 10605 10605 10606 10606 10606 10606 10606 10605 10605 10604
10553 10554 10557 10562 10564 10566 10567 10569 10571 10572 10573 10573 10574 10574 10575 10576 10577 10578 10580 10582 10585 10586 10586 10587 10587 10588 10589 10589 10590 10592 10594 10595 10596 10597 10597 10597 10597 10596 10596 10595 10594 10594 10593